User: anonymous   Login
Location: Theydon Bois
(51.6750°N, 0.1050°E)
Time: 14:48:53
(UTC+00:00)
Language:

Cosmos 2219 Rocket - Orbit

View from above orbital plane
View from above orbital plane
View from above satellite
View from above satellite

Ground track
Ground track

The orbit data is extracted from the following two-line orbital elements,

1 22220U 92076B   18017.24567831 -.00000187  00000-0 -69959-4 0  9995
2 22220  71.0015 328.6612 0014958 301.1258 158.1654 14.16427032301081
Epoch (UTC): 17 January 2018 05:53:46
Eccentricity: 0.0014958
inclination: 71.0015°
perigee height: 826 km
apogee height: 848 km
right ascension of ascending node: 328.6612°
argument of perigee: 301.1258°
revolutions per day: 14.16427032
mean anomaly at epoch: 158.1654°
orbit number at epoch: 30108

The dashed part of the orbit path shows where the satellite is in the earth's shadow,  

DLR